Scottsbluff, NE

9:15 AM MDT on September 15, 2019 (GMT -0600)
Heilig

Weather History for KBFF - July, 2019

Change the Weather History Date:

Wednesday, July 10, 2019

  Actual Average Record
Temperature  
Mean Temperature 66 °F -  
Max Temperature 82 °F 92 °F 106 °F (1934)
Min Temperature 51 °F 59 °F 43 °F (1910)
Cooling Degree Days 1    
Growing Degree Days 16 (Base 50)    
Moisture  
Dew Point 32 °F    
Average Humidity 20    
Maximum Humidity 36    
Minimum Humidity 9    
Precipitation  
Precipitation 0.00 in - - ()
Sea Level Pressure  
Sea Level Pressure 30.18 in    
Wind  
Wind Speed 6 mph (ENE)    
Max Wind Speed 10 mph    
Max Gust Speed -    
Visibility 10 miles    
Events      
Averages and records for this station are not official NWS values.
T = Trace of Precipitation, MM = Missing Value Source: NWS Daily Summary

Daily Weather History Graph

Daily Weather History Graph

Search for Another Location

Airport or City:

Astronomy

Jul. 10, 2019 Rise Set
Actual Time 5:28 AM MDT 8:30 PM MDT
Civil Twilight 4:54 AM MDT 9:04 PM MDT
Nautical Twilight 4:12 AM MDT 9:46 PM MDT
Astronomical Twilight 3:21 AM MDT 10:37 PM MDT
Moon 2:35 PM MDT (7/10) 1:13 AM MDT (7/10)
Length of Visible Light 16h 09m
Length of Day
15h 02m
Waxing Gibbous, 64% of the Moon is Illuminated
Jul 10
Waxing Gibbous
Jul 16
Full
Jul 24
Last Quarter
Jul 31
New
Aug 7
First Quarter

Hourly Weather History & Observations

Time (MDT) Temp. Dew Point Humidity Pressure Visibility Wind Dir Wind Speed Gust Speed Precip Events Conditions
12:53 AM 55.9 °F - N/A% 30.15 in 10.0 mi West 4.6 mph - N/A   Clear
1:53 AM 55.9 °F - N/A% 30.14 in 10.0 mi WNW 3.5 mph - N/A   Clear
2:53 AM 53.1 °F - N/A% 30.15 in 10.0 mi WNW 4.6 mph - N/A   Clear
3:53 AM 54.0 °F - N/A% 30.16 in 10.0 mi West 6.9 mph - N/A   Clear
4:53 AM 52.0 °F - N/A% 30.18 in 10.0 mi WNW 6.9 mph - N/A   Clear
5:53 AM 51.1 °F - N/A% 30.21 in 10.0 mi NW 4.6 mph - N/A   Clear
6:53 AM 55.0 °F - N/A% 30.23 in 10.0 mi NW 6.9 mph - N/A   Clear
7:53 AM 59.0 °F - N/A% 30.24 in 10.0 mi NW 4.6 mph - N/A   Clear
8:53 AM 64.0 °F - N/A% 30.24 in 10.0 mi NW 8.1 mph - N/A   Clear
9:53 AM 69.1 °F - N/A% 30.24 in 10.0 mi Variable 3.5 mph - N/A   Clear
10:53 AM 73.0 °F - N/A% 30.24 in 10.0 mi Calm Calm - N/A   Clear
11:53 AM 73.9 °F - N/A% 30.23 in 10.0 mi Variable 5.8 mph - N/A   Clear
12:53 PM 75.9 °F - N/A% 30.22 in 10.0 mi North - - N/A   Clear
1:53 PM 77.0 °F - N/A% 30.20 in 10.0 mi SSW 5.8 mph - N/A   Clear
2:53 PM 80.1 °F - N/A% 30.18 in 10.0 mi Variable 4.6 mph - N/A   Clear
3:53 PM 81.0 °F - N/A% 30.16 in 10.0 mi ESE 4.6 mph - N/A   Clear
4:53 PM 82.0 °F - N/A% 30.15 in 10.0 mi ESE 4.6 mph - N/A   Clear
5:53 PM 81.0 °F - N/A% 30.14 in 10.0 mi ESE 8.1 mph - N/A   Clear
6:53 PM 79.0 °F - N/A% 30.13 in 10.0 mi East 10.4 mph - N/A   Clear
7:53 PM 75.0 °F - N/A% 30.13 in 10.0 mi East 9.2 mph - N/A   Clear
8:53 PM 69.1 °F - N/A% 30.14 in 10.0 mi East 6.9 mph - N/A   Clear
9:53 PM 66.0 °F - N/A% 30.14 in 10.0 mi ESE 5.8 mph - N/A   Clear
10:53 PM 64.0 °F - N/A% 30.14 in 10.0 mi ESE 9.2 mph - N/A   Clear
11:53 PM 62.1 °F - N/A% 30.15 in 10.0 mi ESE 8.1 mph - N/A   Clear